Wind_Speed
5 4 5 5 5 5 5 5 5 6 6 6 6 6 6 5 5 5 5 4 4 4 4 4 4 3 3 3 3 3 3 3 4 3 3 3 4 4 4 4 5 4 4 3 3 3 3 4 5
6 6 6 6 7 7 7 7 7 7 7 8 8 8 7 7 6 6 6 5 5 5 5 5 4 4 4 4 4 4 3 3 4 4 3 3 4 3 4 4 5 5 5 4 4 5 4 5 5
8 8 7 8 8 9 9 9 8 8 9 9 9 8 8 8 8 7 7 7 6 6 6 5 5 4 4 4 4 4 4 3 4 4 4 4 4 4 4 5 5 5 5 5 5 5 5 5 6
10 10 10 9 10 10 10 10 9 9 10 10 9 9 9 9 9 8 8 8 7 7 6 6 5 5 4 4 4 4 4 4 4 4 4 4 4 4 4 5 5 6 5 5 5 6 6 6 6
10 10 10 10 11 11 11 11 10 10 10 10 10 9 9 9 9 9 9 8 8 7 7 6 5 5 5 4 5 5 4 4 5 5 5 5 5 4 5 5 6 6 6 6 6 6 6 6 7
9 10 10 11 11 10 11 11 11 10 10 10 10 9 9 9 10 9 9 9 8 8 8 7 7 6 5 5 6 6 5 6 6 5 5 5 5 5 5 5 5 6 6 6 6 6 6 6 6
9 9 10 10 11 10 10 9 9 9 10 10 10 10 10 10 10 10 9 9 9 9 9 8 8 7 6 6 6 6 6 6 6 6 6 5 5 5 5 5 6 6 6 6 6 6 6 6 6
9 10 10 10 10 11 10 10 10 10 10 10 10 10 9 10 10 10 10 9 9 9 9 9 8 8 7 7 6 6 6 6 6 6 5 5 5 5 5 6 7 6 6 6 6 6 5 5 6
10 10 10 10 10 10 10 9 9 10 10 10 10 10 10 10 10 10 11 11 10 9 9 9 8 8 7 7 6 6 6 6 6 6 5 5 6 6 6 6 7 6 6 6 6 6 5 5 6
10 10 10 10 11 10 10 10 10 10 10 10 11 11 11 10 10 11 11 11 10 10 9 9 8 9 8 8 7 7 6 6 6 6 6 6 6 6 6 6 6 6 6 5 5 5 5 5 5
8 9 10 10 10 10 10 10 11 11 11 11 11 10 11 11 11 11 11 10 10 9 9 9 9 8 8 8 8 8 7 7 6 6 6 6 7 6 6 6 6 5 5 5 4 4 4 4 4
8 9 9 9 9 9 10 10 11 12 12 13 12 11 11 11 11 11 11 10 10 10 10 10 9 8 9 9 8 8 8 7 6 6 6 6 6 6 6 6 6 5 5 5 4 4 4 4 4
7 8 8 9 9 9 11 11 11 11 12 13 13 12 12 11 11 11 10 10 10 10 10 10 9 9 9 9 9 8 7 6 6 6 6 6 6 6 6 6 5 5 5 4 4 4 4 3 3
7 7 7 8 9 10 10 10 10 11 11 11 11 11 11 11 11 11 10 11 11 11 11 10 10 10 10 10 9 7 6 6 6 6 6 6 6 5 5 5 5 5 4 4 4 4 4 3 3
7 8 8 8 9 9 10 10 9 10 11 11 11 11 10 11 10 10 10 11 11 11 10 10 10 10 9 8 7 6 5 6 6 6 5 5 5 5 5 5 5 5 4 4 4 4 3 3 2
8 8 8 8 8 9 9 9 10 10 11 11 11 10 10 10 9 9 10 10 10 10 10 9 9 8 7 6 7 6 5 5 5 4 4 5 5 5 5 4 5 5 5 4 4 4 3 3 2
8 8 8 8 8 9 9 10 10 10 11 11 10 10 10 9 9 9 9 9 9 9 9 8 7 6 5 6 6 5 5 5 4 4 5 4 4 4 4 4 4 4 4 4 3 3 3 3 3
8 8 7 8 8 9 9 10 10 10 11 11 10 10 10 10 10 9 9 9 9 9 8 7 6 6 6 5 6 6 5 5 4 4 4 4 3 4 4 4 4 4 4 3 3 3 3 3 3
8 8 7 8 8 9 9 9 9 10 10 10 10 10 10 10 10 9 8 8 8 8 7 6 6 6 6 6 6 6 5 5 4 4 4 3 3 4 4 3 3 3 3 3 3 3 4 4 3
7 7 7 8 8 8 8 8 9 9 9 9 9 10 10 10 10 9 8 8 7 7 7 6 6 5 5 5 5 5 5 5 5 4 3 3 3 3 3 3 3 3 3 3 3 3 3 3 3
8 8 7 7 7 7 8 8 8 8 8 8 8 9 9 9 9 9 8 7 6 6 6 7 6 5 5 5 6 6 5 6 5 4 3 2 2 2 3 2 2 2 2 3 3 3 3 3 3
8 8 8 8 8 8 8 8 8 8 7 7 8 8 8 8 8 8 7 7 7 7 7 7 7 6 6 6 6 7 6 5 5 4 3 2 2 2 2 2 2 2 2 3 3 3 3 4 4
7 7 7 8 8 7 7 8 8 9 8 8 8 8 8 7 8 7 7 7 7 7 7 7 8 7 6 7 7 6 5 5 5 4 3 2 2 2 2 2 1 2 2 3 3 4 4 4 4
7 7 6 7 8 7 7 9 9 10 9 8 8 7 8 8 7 7 7 7 7 6 7 7 8 7 7 8 7 6 6 5 5 4 3 3 3 2 2 2 2 3 3 3 4 5 5 5 5
8 8 7 7 7 8 9 10 9 9 8 8 7 7 7 7 7 7 7 7 6 7 7 8 8 8 8 7 6 7 7 6 6 5 4 4 4 3 3 3 4 4 4 4 5 5 6 6 6
9 9 7 7 7 8 9 9 9 9 8 8 8 8 8 8 8 8 8 8 7 8 8 8 7 7 7 6 6 6 6 6 6 5 5 5 5 4 4 4 5 5 5 6 6 6 7 7 7
9 9 9 8 8 9 9 8 8 8 8 8 8 8 8 9 9 9 9 9 9 9 8 8 7 7 7 6 6 7 6 6 7 6 6 6 6 6 6 6 6 6 6 7 7 7 7 7 7
10 10 9 9 8 9 9 9 10 9 9 9 9 9 9 9 9 9 9 9 9 8 8 7 7 7 7 7 7 7 7 7 7 7 7 7 7 7 7 7 7 7 7 7 7 7 7 7 8
10 10 11 11 10 9 9 9 10 9 9 9 9 9 9 9 8 8 8 9 8 8 8 7 7 8 7 7 7 7 8 8 9 9 8 8 8 8 8 8 8 7 7 8 8 8 8 9 9
12 12 12 11 11 11 11 10 10 10 10 10 10 9 9 8 8 8 8 9 8 8 8 8 8 8 8 8 8 9 9 9 9 9 9 9 9 8 8 8 8 8 8 9 9 9 9 10 10
Wind_Direction
234 238 239 241 246 252 258 259 266 272 261 266 270 272 274 256 249 251 257 262 274 280 282 283 284 287 292 305 313 310 318 338 343 339 335 326 324 321 319 330 333 329 320 304 283 287 273 264 253
236 238 241 250 252 258 260 259 259 264 264 271 272 269 266 258 250 248 254 255 261 272 277 285 283 285 286 297 308 309 313 326 333 331 327 325 325 324 323 328 329 327 319 309 298 295 286 273 262
240 239 242 252 257 263 261 260 259 261 264 268 269 269 261 257 251 249 252 251 256 266 275 280 280 283 282 286 299 306 306 314 320 324 324 328 328 325 324 325 326 321 315 308 300 294 287 275 265
243 241 244 252 260 265 265 264 262 264 263 264 266 264 255 252 249 248 249 254 262 267 271 273 273 276 275 280 289 299 305 312 314 314 311 321 326 321 322 321 323 318 305 304 301 295 289 274 260
246 246 249 254 264 266 266 267 268 264 263 262 266 262 254 250 252 253 253 256 261 263 265 269 273 274 272 279 287 291 292 303 309 306 308 314 321 315 314 319 320 319 307 300 303 303 297 281 265
254 252 252 258 266 268 265 263 267 265 263 263 262 260 255 252 257 261 255 256 258 259 264 267 272 271 271 276 286 290 290 294 304 306 306 312 317 315 311 313 318 318 312 306 303 303 298 287 271
253 256 255 260 264 266 266 265 264 262 263 263 260 257 256 258 261 261 259 257 258 259 266 269 269 270 272 281 287 288 291 296 300 304 304 311 314 312 314 319 316 318 311 306 304 302 296 284 269
255 255 256 259 263 264 265 265 266 262 259 258 256 258 258 262 263 263 258 256 261 264 266 265 271 273 272 280 284 285 291 296 302 307 309 315 316 312 312 315 316 316 311 308 308 305 297 282 270
254 254 253 258 260 262 265 263 262 258 256 256 257 260 261 263 267 262 259 260 262 264 267 263 267 272 272 278 278 282 289 294 300 304 306 316 316 314 312 313 315 312 310 308 308 306 298 284 271
254 256 258 260 262 262 263 259 257 254 253 256 258 259 262 266 267 263 258 261 259 262 267 270 272 273 273 273 271 277 283 292 299 300 304 311 312 312 314 317 318 312 308 308 305 303 294 284 272
257 260 258 259 258 263 264 257 255 257 256 257 259 260 264 267 268 264 256 256 259 261 262 267 272 271 270 272 275 280 284 291 299 299 303 309 310 315 320 321 320 315 313 313 308 304 298 286 276
260 265 262 260 262 263 264 260 259 259 260 261 263 265 266 268 266 259 257 256 257 258 261 264 270 272 270 272 273 274 281 286 293 300 303 311 312 319 320 318 321 320 318 316 313 311 306 293 284
259 265 265 265 267 264 265 263 264 266 263 265 266 268 270 272 266 259 255 253 258 263 266 265 268 275 277 276 272 273 279 281 292 300 304 309 313 318 323 325 325 324 324 325 325 322 317 306 297
266 269 271 271 269 268 269 268 268 270 265 265 269 273 274 273 267 257 256 261 267 270 271 272 272 275 277 278 276 275 278 284 291 297 306 312 316 320 325 336 333 330 329 331 335 335 334 327 307
276 275 274 274 272 271 271 273 273 272 268 268 270 274 275 277 272 263 263 266 272 277 274 274 276 277 276 274 271 275 279 283 287 293 305 316 317 321 328 340 340 336 335 338 343 341 342 339 314
278 278 277 278 277 280 278 278 274 275 272 270 271 272 272 272 271 270 267 266 273 278 278 272 276 275 268 265 263 271 268 276 282 292 305 318 322 327 331 341 349 351 352 352 356 356 357 357 345
284 281 283 285 282 282 281 282 282 278 274 272 272 271 270 269 271 272 267 266 271 277 276 273 274 269 266 273 268 262 258 260 268 283 300 312 318 324 330 343 350 360 2 5 12 13 7 0 352
288 284 282 283 285 285 281 283 285 285 279 277 276 273 273 269 267 266 264 266 272 275 274 275 269 268 262 267 269 263 251 252 259 275 291 308 320 326 335 343 351 358 3 9 18 16 9 1 358
282 281 277 278 284 287 287 288 291 292 288 279 275 276 275 266 264 263 264 266 269 272 270 269 266 260 260 262 261 260 247 251 257 273 283 301 319 329 337 345 353 357 3 10 15 10 10 17 14
285 278 280 277 283 288 291 288 288 293 293 283 277 277 275 267 263 261 268 270 272 267 265 270 272 262 260 261 261 265 248 248 256 266 275 301 320 331 343 348 353 360 8 12 6 1 10 16 12
283 284 284 283 285 290 293 292 291 295 298 290 284 280 278 269 259 261 264 266 264 267 266 265 265 265 264 264 264 269 253 250 246 256 257 281 309 333 348 348 358 4 2 360 354 357 358 4 7
284 287 284 283 286 291 295 294 292 296 300 299 293 285 282 266 260 258 259 261 258 263 268 270 268 269 264 263 263 260 249 242 239 241 247 264 292 324 346 354 350 350 353 352 353 357 354 352 354
286 287 287 287 288 293 297 295 290 296 298 298 294 286 277 268 265 262 259 258 259 268 268 271 274 271 265 262 263 250 244 242 232 229 239 251 274 304 327 335 331 331 328 332 334 335 338 333 328
282 285 284 285 290 295 296 293 289 290 289 288 288 287 276 272 265 260 258 258 262 268 269 271 273 266 264 262 251 241 240 240 229 226 235 251 263 277 292 303 308 313 315 318 323 321 321 320 315
274 280 284 288 293 296 292 290 290 291 292 289 288 288 279 276 265 264 266 269 268 270 271 269 271 264 262 260 250 240 238 238 233 233 239 251 260 272 284 287 287 299 309 309 313 316 313 312 310
275 278 275 277 283 292 291 287 290 293 295 291 289 289 281 273 272 267 268 274 271 270 271 271 268 261 256 251 254 240 236 236 238 242 243 247 258 270 282 287 290 295 302 304 304 309 309 308 308
274 269 268 271 275 283 291 292 296 298 296 294 290 289 287 277 271 269 269 268 267 266 267 264 258 252 246 248 252 244 234 239 242 243 247 253 261 266 275 282 285 294 298 301 304 307 306 305 306
268 264 260 262 268 275 285 286 290 299 293 291 291 291 292 282 273 266 263 263 259 258 261 256 251 248 253 256 257 246 238 242 242 248 250 256 262 267 270 274 278 287 294 300 301 304 307 306 305
267 262 259 258 263 272 279 288 294 297 297 293 293 293 292 284 277 269 261 258 253 255 257 251 249 251 254 255 255 251 243 241 243 248 250 256 263 265 270 276 279 283 288 292 298 299 301 302 302
267 266 262 260 261 265 270 280 290 295 296 294 295 295 295 285 279 272 264 259 256 257 254 246 248 252 254 256 254 252 246 245 248 250 255 259 263 271 275 280 281 281 284 287 292 296 297 299 299
Height
5875 5876 5877 5878 5879 5880 5879 5880 5880 5881 5881 5881 5882 5882 5882 5882 5884 5886 5885 5883 5883 5883 5883 5883 5883 5883 5882 5882 5881 5881 5880 5880 5879 5879 5879 5878 5878 5877 5877 5877 5877 5876 5876 5876 5876 5876 5876 5876 5876
5874 5875 5877 5877 5878 5878 5879 5879 5879 5880 5881 5881 5880 5881 5881 5882 5882 5883 5883 5882 5883 5883 5883 5883 5882 5882 5882 5881 5881 5881 5880 5880 5879 5879 5878 5878 5877 5877 5877 5876 5876 5876 5876 5875 5875 5875 5875 5875 5875
5873 5874 5876 5876 5876 5877 5877 5877 5878 5879 5879 5879 5880 5880 5880 5881 5881 5881 5882 5882 5882 5882 5882 5882 5882 5881 5881 5881 5881 5880 5880 5879 5879 5878 5878 5877 5877 5876 5876 5876 5875 5875 5875 5875 5874 5874 5874 5874 5874
5871 5874 5875 5876 5875 5875 5876 5876 5876 5877 5877 5878 5878 5879 5879 5879 5880 5880 5880 5881 5881 5881 5881 5881 5881 5881 5881 5880 5880 5880 5879 5879 5878 5878 5877 5877 5876 5876 5876 5875 5875 5874 5874 5874 5873 5873 5873 5872 5872
5871 5872 5874 5874 5873 5873 5874 5874 5874 5875 5876 5876 5877 5877 5877 5878 5878 5879 5879 5880 5880 5880 5880 5880 5880 5880 5880 5880 5879 5879 5879 5878 5878 5877 5877 5876 5876 5875 5875 5874 5874 5873 5873 5872 5872 5872 5871 5871 5871
5870 5871 5872 5872 5871 5872 5872 5872 5872 5873 5874 5874 5875 5876 5876 5876 5877 5877 5878 5878 5879 5879 5879 5879 5879 5879 5879 5879 5878 5878 5878 5878 5877 5876 5876 5875 5875 5874 5874 5874 5873 5872 5872 5871 5871 5870 5870 5870 5870
5869 5870 5870 5870 5870 5870 5870 5870 5871 5871 5872 5873 5874 5874 5874 5875 5875 5876 5876 5877 5877 5878 5878 5878 5878 5878 5878 5878 5877 5877 5877 5877 5876 5876 5875 5874 5874 5874 5873 5873 5872 5871 5871 5870 5870 5869 5868 5868 5868
5867 5869 5868 5868 5868 5868 5868 5868 5869 5870 5870 5871 5872 5872 5873 5874 5874 5874 5875 5876 5876 5876 5876 5877 5877 5877 5877 5877 5876 5876 5876 5876 5875 5875 5874 5873 5873 5873 5872 5871 5871 5870 5869 5869 5868 5868 5867 5867 5867
5865 5867 5866 5867 5867 5867 5867 5867 5868 5868 5869 5869 5870 5871 5871 5872 5872 5872 5873 5874 5874 5875 5875 5875 5875 5875 5875 5875 5875 5875 5874 5874 5874 5874 5873 5873 5872 5872 5871 5870 5870 5869 5868 5867 5867 5866 5866 5865 5865
5864 5865 5865 5865 5865 5866 5866 5866 5866 5867 5867 5868 5869 5869 5869 5870 5870 5871 5871 5872 5873 5873 5873 5874 5874 5874 5874 5874 5874 5874 5874 5873 5873 5873 5873 5872 5871 5871 5870 5869 5868 5867 5867 5866 5865 5865 5865 5864 5864
5862 5862 5863 5863 5863 5864 5864 5864 5865 5865 5866 5867 5867 5867 5868 5868 5869 5869 5869 5870 5871 5871 5872 5872 5872 5872 5872 5873 5872 5873 5872 5872 5872 5872 5871 5871 5870 5869 5869 5868 5867 5866 5865 5865 5864 5864 5863 5863 5863
5861 5861 5861 5862 5862 5862 5862 5863 5863 5863 5864 5865 5865 5866 5866 5866 5867 5867 5868 5868 5869 5870 5870 5870 5871 5871 5871 5871 5871 5871 5871 5871 5871 5870 5870 5870 5869 5868 5868 5867 5866 5865 5864 5864 5863 5863 5862 5862 5862
5859 5860 5860 5860 5860 5860 5861 5861 5861 5861 5862 5863 5863 5864 5864 5864 5865 5866 5866 5866 5867 5868 5868 5868 5869 5869 5869 5869 5869 5869 5869 5869 5869 5869 5869 5869 5868 5867 5867 5866 5865 5865 5863 5863 5862 5862 5862 5861 5861
5858 5858 5858 5858 5858 5859 5859 5859 5860 5860 5860 5861 5862 5862 5862 5862 5863 5863 5864 5865 5865 5866 5866 5866 5866 5867 5867 5867 5868 5868 5868 5868 5868 5868 5868 5868 5867 5867 5866 5865 5865 5864 5863 5862 5862 5861 5861 5861 5861
5857 5857 5857 5857 5857 5857 5858 5858 5858 5858 5859 5859 5860 5860 5860 5861 5861 5862 5862 5863 5863 5864 5864 5864 5864 5864 5865 5866 5866 5867 5867 5867 5867 5867 5867 5867 5866 5866 5865 5865 5864 5863 5862 5862 5861 5861 5860 5860 5860
5856 5856 5856 5856 5855 5856 5858 5857 5856 5856 5857 5857 5858 5858 5859 5859 5859 5860 5860 5861 5862 5862 5862 5862 5862 5863 5863 5864 5865 5865 5865 5866 5866 5866 5866 5866 5865 5865 5865 5864 5863 5862 5862 5861 5861 5860 5860 5860 5860
5854 5854 5854 5855 5854 5854 5855 5855 5855 5855 5855 5855 5856 5856 5857 5857 5857 5858 5858 5859 5860 5860 5860 5860 5861 5861 5862 5863 5863 5864 5864 5865 5865 5866 5865 5865 5865 5864 5864 5863 5863 5862 5861 5861 5861 5861 5860 5860 5860
5854 5853 5853 5853 5853 5853 5853 5854 5853 5853 5853 5853 5854 5854 5855 5855 5856 5856 5857 5858 5858 5858 5859 5859 5859 5860 5861 5861 5862 5863 5863 5864 5865 5865 5865 5865 5864 5864 5863 5863 5862 5862 5861 5861 5861 5861 5860 5860 5860
5853 5852 5852 5852 5852 5852 5852 5852 5852 5851 5851 5852 5852 5852 5853 5853 5854 5854 5855 5856 5856 5857 5857 5858 5858 5858 5859 5860 5861 5862 5862 5863 5864 5864 5864 5864 5864 5863 5863 5862 5862 5861 5861 5861 5861 5861 5860 5860 5860
5852 5852 5851 5851 5851 5851 5850 5850 5850 5850 5850 5850 5850 5850 5851 5851 5852 5853 5854 5855 5855 5855 5856 5856 5857 5857 5858 5859 5860 5860 5861 5862 5863 5863 5863 5864 5863 5863 5863 5862 5862 5861 5861 5861 5861 5861 5860 5860 5860
5851 5851 5851 5850 5850 5850 5850 5850 5849 5848 5848 5848 5848 5849 5849 5850 5851 5851 5852 5853 5854 5854 5854 5855 5856 5856 5857 5858 5859 5859 5860 5861 5861 5862 5863 5863 5863 5863 5862 5862 5862 5861 5861 5861 5861 5861 5861 5860 5860
5850 5850 5850 5849 5849 5849 5849 5848 5848 5847 5847 5847 5847 5847 5848 5848 5849 5850 5851 5851 5852 5853 5853 5854 5854 5855 5856 5856 5857 5858 5859 5859 5861 5861 5862 5862 5862 5862 5862 5862 5862 5861 5861 5861 5861 5861 5861 5860 5860
5849 5849 5848 5848 5848 5848 5848 5847 5847 5846 5846 5846 5846 5846 5847 5847 5848 5848 5849 5850 5850 5851 5851 5852 5853 5854 5854 5855 5856 5857 5858 5859 5860 5860 5861 5862 5862 5862 5862 5862 5862 5861 5861 5861 5861 5860 5860 5860 5860
5848 5848 5848 5847 5847 5847 5847 5847 5846 5845 5845 5845 5845 5845 5845 5846 5847 5847 5848 5848 5849 5849 5850 5851 5851 5852 5853 5854 5854 5856 5857 5858 5859 5860 5861 5861 5862 5862 5862 5861 5861 5861 5861 5860 5860 5860 5860 5859 5859
5847 5847 5847 5846 5846 5846 5846 5845 5846 5844 5844 5844 5844 5844 5844 5845 5845 5846 5846 5847 5847 5848 5849 5849 5850 5851 5851 5852 5853 5854 5856 5857 5858 5859 5859 5860 5861 5861 5861 5861 5861 5860 5860 5860 5859 5859 5859 5859 5858
5845 5846 5846 5846 5846 5845 5844 5844 5844 5843 5843 5843 5843 5843 5843 5843 5844 5844 5845 5845 5846 5846 5847 5848 5848 5849 5850 5851 5852 5853 5854 5856 5856 5857 5858 5859 5860 5860 5860 5860 5860 5859 5859 5859 5858 5858 5858 5857 5857
5843 5843 5844 5844 5844 5844 5843 5843 5842 5842 5842 5842 5841 5841 5841 5842 5842 5842 5843 5843 5844 5844 5845 5846 5847 5848 5849 5850 5851 5852 5853 5854 5855 5856 5857 5858 5858 5858 5859 5859 5859 5858 5858 5858 5857 5857 5856 5856 5856
5842 5842 5842 5842 5842 5843 5843 5842 5841 5841 5840 5840 5840 5840 5840 5840 5840 5840 5841 5841 5842 5842 5843 5844 5845 5846 5847 5848 5849 5850 5851 5852 5854 5855 5855 5856 5856 5857 5857 5857 5857 5857 5857 5856 5856 5855 5855 5855 5854
5840 5840 5840 5840 5841 5841 5841 5842 5839 5839 5838 5838 5838 5838 5838 5838 5838 5838 5838 5839 5840 5841 5842 5842 5843 5844 5845 5846 5847 5848 5850 5851 5852 5853 5854 5854 5854 5855 5855 5855 5855 5855 5855 5855 5854 5854 5853 5853 5852
5837 5837 5838 5839 5839 5839 5839 5842 5838 5837 5837 5836 5836 5836 5836 5836 5836 5836 5837 5837 5838 5839 5840 5841 5842 5843 5843 5844 5845 5846 5847 5849 5850 5850 5851 5852 5852 5853 5853 5853 5853 5853 5853 5853 5852 5852 5851 5851 5850